Torna al catalogo

STARLINK-4760

AttivoComunicazioniVLEO
NORAD 53828·PAYLOAD·🇺🇸 United States

Lanciato Sep 19, 2022 da Cape Canaveral Space Force Station

Loading…

Prossimi Passaggi (prossime 24 ore)

TLE

AggiornatoSource: CelesTrak SupGP

Epoca: Sep 14, 2026, 20:53 UTC

1 53828C 22114L   26257.87062500 -.00021804  00000+0 -62361-3 0  2570
2 53828  53.1587 166.7369 0001257 101.0353  61.5097 15.35420581    16

Traccia STARLINK-4760 in tempo reale con AllMySat

Download on the App Store